Time,TemperatureF,DewpointF,PressureIn,WindDirection,WindDirectionDegrees,WindSpeedMPH,WindSpeedGustMPH,Humidity,HourlyPrecipIn,Conditions,Clouds,dailyrainin,SoftwareType,DateUTC
2013-07-03 00:06:00,70.0,48.8,29.41,West,277,0.0,0.0,47,0.00,,,0.00,VWS V14.01,2013-07-03 04:06:00,
2013-07-03 00:21:00,69.6,49.1,29.44,West,277,0.0,0.0,48,0.00,,,0.00,VWS V14.01,2013-07-03 04:21:00,
2013-07-03 00:36:00,69.6,50.2,29.44,West,277,0.0,0.0,50,0.00,,,0.00,VWS V14.01,2013-07-03 04:36:00,
2013-07-03 00:51:00,69.6,50.7,29.44,West,277,0.0,0.0,51,0.00,,,0.00,VWS V14.01,2013-07-03 04:51:00,
2013-07-03 01:06:00,69.4,51.1,29.44,WSW,257,0.0,0.0,52,0.00,,,0.00,VWS V14.01,2013-07-03 05:06:00,
2013-07-03 01:21:00,69.4,51.6,29.44,WSW,257,0.0,0.0,53,0.00,,,0.00,VWS V14.01,2013-07-03 05:21:00,
2013-07-03 01:36:00,69.4,52.6,29.44,WSW,257,0.0,0.0,55,0.00,,,0.00,VWS V14.01,2013-07-03 05:36:00,
2013-07-03 01:51:00,69.6,52.8,29.44,WSW,257,0.0,0.0,55,0.00,,,0.00,VWS V14.01,2013-07-03 05:51:00,
2013-07-03 02:06:00,69.6,53.7,29.41,WSW,257,0.0,0.0,57,0.00,,,0.00,VWS V14.01,2013-07-03 06:06:00,
2013-07-03 02:21:00,69.6,53.7,29.41,WSW,257,0.0,0.0,57,0.00,,,0.00,VWS V14.01,2013-07-03 06:21:00,
2013-07-03 02:36:00,69.4,53.6,29.41,WSW,257,0.0,0.0,57,0.00,,,0.00,VWS V14.01,2013-07-03 06:36:00,
2013-07-03 02:51:00,69.3,53.9,29.41,WSW,257,0.0,0.0,58,0.00,,,0.00,VWS V14.01,2013-07-03 06:51:00,
2013-07-03 03:06:00,69.3,54.3,29.41,WSW,257,0.0,0.0,59,0.00,,,0.00,VWS V14.01,2013-07-03 07:06:00,
2013-07-03 03:21:00,69.1,54.2,29.41,WSW,257,0.0,0.0,59,0.00,,,0.00,VWS V14.01,2013-07-03 07:21:00,
2013-07-03 03:51:00,68.9,54.5,29.44,WSW,257,0.0,0.0,60,0.00,,,0.00,VWS V14.01,2013-07-03 07:51:00,
2013-07-03 04:06:00,68.7,54.3,29.44,WSW,257,0.0,0.0,60,0.00,,,0.00,VWS V14.01,2013-07-03 08:06:00,
2013-07-03 04:21:00,68.5,54.6,29.44,WSW,257,0.0,0.0,61,0.00,,,0.00,VWS V14.01,2013-07-03 08:21:00,
2013-07-03 04:36:00,68.5,55.0,29.44,WSW,257,0.0,0.0,62,0.00,,,0.00,VWS V14.01,2013-07-03 08:36:00,
2013-07-03 04:51:00,68.5,55.0,29.44,WSW,257,0.0,0.0,62,0.00,,,0.00,VWS V14.01,2013-07-03 08:51:00,
2013-07-03 05:06:00,68.5,55.5,29.44,WSW,257,0.0,0.0,63,0.00,,,0.00,VWS V14.01,2013-07-03 09:06:00,
2013-07-03 05:21:00,68.7,55.6,29.44,WSW,257,0.0,0.0,63,0.00,,,0.00,VWS V14.01,2013-07-03 09:21:00,
2013-07-03 05:51:00,68.7,56.1,29.44,WSW,257,0.0,0.0,64,0.00,,,0.00,VWS V14.01,2013-07-03 09:51:00,
2013-07-03 06:06:00,68.7,56.1,29.47,WSW,257,0.0,0.0,64,0.00,,,0.00,VWS V14.01,2013-07-03 10:06:00,
2013-07-03 06:21:00,68.7,56.1,29.47,WSW,257,0.0,0.0,64,0.00,,,0.00,VWS V14.01,2013-07-03 10:21:00,
2013-07-03 06:36:00,68.7,56.1,29.47,WSW,257,0.0,0.0,64,0.00,,,0.00,VWS V14.01,2013-07-03 10:36:00,
2013-07-03 06:51:00,68.9,56.2,29.47,WSW,257,0.0,0.0,64,0.00,,,0.00,VWS V14.01,2013-07-03 10:51:00,
2013-07-03 07:06:00,69.1,56.4,29.47,WSW,257,0.0,0.0,64,0.00,,,0.00,VWS V14.01,2013-07-03 11:06:00,
2013-07-03 07:36:00,70.0,56.8,29.50,NNW,328,0.0,0.0,63,0.00,,,0.00,VWS V14.01,2013-07-03 11:36:00,
2013-07-03 07:51:00,70.2,56.1,29.50,NNE,20,0.0,0.0,61,0.00,,,0.00,VWS V14.01,2013-07-03 11:51:00,
2013-07-03 08:06:00,70.5,54.6,29.50,NNE,20,0.0,0.0,57,0.00,,,0.00,VWS V14.01,2013-07-03 12:06:00,
2013-07-03 08:21:00,70.9,53.4,29.50,NNE,20,0.0,0.0,54,0.00,,,0.00,VWS V14.01,2013-07-03 12:21:00,
2013-07-03 08:36:00,71.4,52.4,29.53,NNE,20,0.0,0.0,51,0.00,,,0.00,VWS V14.01,2013-07-03 12:36:00,
2013-07-03 08:51:00,72.0,51.2,29.53,NNE,20,0.0,0.0,48,0.00,,,0.00,VWS V14.01,2013-07-03 12:51:00,
2013-07-03 09:06:00,72.3,49.8,29.53,NNE,20,0.0,0.0,45,0.00,,,0.00,VWS V14.01,2013-07-03 13:06:00,
2013-07-03 09:21:00,72.5,50.0,29.53,NNE,20,0.0,0.0,45,0.00,,,0.00,VWS V14.01,2013-07-03 13:21:00,
2013-07-03 09:51:00,72.7,50.7,29.53,North,357,0.0,0.0,46,0.00,,,0.00,VWS V14.01,2013-07-03 13:51:00,
2013-07-03 10:21:00,73.2,51.2,29.53,SSE,157,0.0,0.0,46,0.00,,,0.00,VWS V14.01,2013-07-03 14:21:00,
2013-07-03 10:36:00,74.7,51.9,29.53,SSE,157,0.0,0.0,45,0.00,,,0.00,VWS V14.01,2013-07-03 14:36:00,
2013-07-03 10:51:00,76.6,47.7,29.53,SE,134,0.0,0.0,36,0.00,,,0.00,VWS V14.01,2013-07-03 14:51:00,
2013-07-03 11:06:00,77.7,44.7,29.53,SE,135,0.0,0.0,31,0.00,,,0.00,VWS V14.01,2013-07-03 15:06:00,
2013-07-03 11:21:00,78.4,44.5,29.53,East,99,0.0,0.0,30,0.00,,,0.00,VWS V14.01,2013-07-03 15:21:00,
2013-07-03 11:51:00,81.0,38.6,29.53,ESE,108,0.0,0.0,22,0.00,,,0.00,VWS V14.01,2013-07-03 15:51:00,
2013-07-03 12:06:00,81.7,38.0,29.50,NE,44,0.0,0.0,21,0.00,,,0.00,VWS V14.01,2013-07-03 16:06:00,
2013-07-03 12:21:00,81.7,36.8,29.53,NNE,15,0.0,0.0,20,0.00,,,0.00,VWS V14.01,2013-07-03 16:21:00,
2013-07-03 12:36:00,82.4,36.0,29.50,NNW,341,0.0,0.0,19,0.00,,,0.00,VWS V14.01,2013-07-03 16:36:00,
2013-07-03 12:51:00,82.0,37.0,29.50,West,278,0.0,0.0,20,0.00,,,0.00,VWS V14.01,2013-07-03 16:51:00,
2013-07-03 13:21:00,83.7,37.1,29.50,East,90,0.0,0.0,19,0.00,,,0.00,VWS V14.01,2013-07-03 17:21:00,
2013-07-03 13:36:00,84.6,36.4,29.50,ENE,78,0.0,0.0,18,0.00,,,0.00,VWS V14.01,2013-07-03 17:36:00,
2013-07-03 14:06:00,84.4,36.3,29.50,South,178,0.0,0.0,18,0.00,,,0.00,VWS V14.01,2013-07-03 18:06:00,
2013-07-03 14:21:00,82.6,36.2,29.50,WNW,302,0.0,0.0,19,0.00,,,0.00,VWS V14.01,2013-07-03 18:21:00,
2013-07-03 14:36:00,80.8,36.0,29.50,WNW,302,0.0,0.0,20,0.00,,,0.00,VWS V14.01,2013-07-03 18:36:00,
2013-07-03 14:51:00,80.4,37.0,29.50,South,190,0.0,0.0,21,0.00,,,0.00,VWS V14.01,2013-07-03 18:51:00,
2013-07-03 15:06:00,80.8,37.2,29.50,SSE,147,0.0,0.0,21,0.00,,,0.00,VWS V14.01,2013-07-03 19:06:00,
2013-07-03 15:21:00,80.8,37.2,29.50,SW,223,0.0,0.0,21,0.00,,,0.00,VWS V14.01,2013-07-03 19:21:00,
2013-07-03 15:36:00,80.2,38.0,29.47,SW,223,0.0,0.0,22,0.00,,,0.00,VWS V14.01,2013-07-03 19:36:00,
2013-07-03 15:51:00,80.6,35.9,29.47,North,357,0.0,0.0,20,0.00,,,0.00,VWS V14.01,2013-07-03 19:51:00,
2013-07-03 16:06:00,80.8,36.0,29.47,SSE,163,0.0,0.0,20,0.00,,,0.00,VWS V14.01,2013-07-03 20:06:00,
2013-07-03 16:21:00,80.2,36.8,29.47,WSW,237,0.0,0.0,21,0.00,,,0.00,VWS V14.01,2013-07-03 20:21:00,
2013-07-03 16:36:00,79.5,36.2,29.47,South,178,0.0,0.0,21,0.00,,,0.00,VWS V14.01,2013-07-03 20:36:00,
2013-07-03 16:51:00,79.2,37.1,29.47,WSW,253,0.0,0.0,22,0.00,,,0.00,VWS V14.01,2013-07-03 20:51:00,
2013-07-03 17:06:00,79.2,38.2,29.47,WSW,253,0.0,0.0,23,0.00,,,0.00,VWS V14.01,2013-07-03 21:06:00,
2013-07-03 17:36:00,78.1,40.4,29.47,WSW,253,0.0,0.0,26,0.00,,,0.00,VWS V14.01,2013-07-03 21:36:00,
2013-07-03 17:51:00,77.7,43.8,29.50,WNW,287,0.0,0.0,30,0.00,,,0.00,VWS V14.01,2013-07-03 21:51:00,
2013-07-03 18:06:00,77.9,41.3,29.47,North,11,0.0,0.0,27,0.00,,,0.00,VWS V14.01,2013-07-03 22:06:00,
2013-07-03 18:21:00,77.2,39.7,29.47,SW,220,0.0,0.0,26,0.00,,,0.00,VWS V14.01,2013-07-03 22:21:00,
2013-07-03 18:36:00,76.8,40.3,29.50,SW,220,0.0,0.0,27,0.00,,,0.00,VWS V14.01,2013-07-03 22:36:00,
2013-07-03 18:51:00,76.1,38.8,29.50,WSW,253,0.0,0.0,26,0.00,,,0.00,VWS V14.01,2013-07-03 22:51:00,
2013-07-03 19:06:00,75.6,40.2,29.50,WSW,253,0.0,0.0,28,0.00,,,0.00,VWS V14.01,2013-07-03 23:06:00,
2013-07-03 19:21:00,75.2,41.7,29.50,WSW,253,0.0,0.0,30,0.00,,,0.00,VWS V14.01,2013-07-03 23:21:00,
2013-07-03 19:51:00,74.3,41.7,29.50,WSW,253,0.0,0.0,31,0.00,,,0.00,VWS V14.01,2013-07-03 23:51:00,
2013-07-03 20:21:00,73.9,39.7,29.50,WSW,238,0.0,0.0,29,0.00,,,0.00,VWS V14.01,2013-07-04 00:21:00,
2013-07-03 20:36:00,73.8,38.7,29.50,WSW,238,0.0,0.0,28,0.00,,,0.00,VWS V14.01,2013-07-04 00:36:00,
2013-07-03 20:51:00,73.4,37.4,29.50,WSW,238,0.0,0.0,27,0.00,,,0.00,VWS V14.01,2013-07-04 00:51:00,
2013-07-03 21:06:00,73.2,38.2,29.50,WSW,238,0.0,0.0,28,0.00,,,0.00,VWS V14.01,2013-07-04 01:06:00,
2013-07-03 21:21:00,72.9,39.7,29.50,WSW,238,0.0,0.0,30,0.00,,,0.00,VWS V14.01,2013-07-04 01:21:00,
2013-07-03 21:36:00,72.5,40.2,29.50,WSW,238,0.0,0.0,31,0.00,,,0.00,VWS V14.01,2013-07-04 01:36:00,
2013-07-03 22:06:00,70.5,41.6,29.50,WSW,248,0.0,0.0,35,0.00,,,0.00,VWS V14.01,2013-07-04 02:06:00,
2013-07-03 22:36:00,69.8,45.1,29.50,WSW,248,0.0,0.0,41,0.00,,,0.00,VWS V14.01,2013-07-04 02:36:00,
2013-07-03 22:51:00,69.6,46.2,29.50,SSE,167,0.0,0.0,43,0.00,,,0.00,VWS V14.01,2013-07-04 02:51:00,
2013-07-03 23:06:00,69.6,48.0,29.50,South,173,0.0,0.0,46,0.00,,,0.00,VWS V14.01,2013-07-04 03:06:00,
2013-07-03 23:21:00,69.6,49.1,29.50,South,173,0.0,0.0,48,0.00,,,0.00,VWS V14.01,2013-07-04 03:21:00,
2013-07-03 23:36:00,69.4,50.0,29.50,NW,306,0.0,0.0,50,0.00,,,0.00,VWS V14.01,2013-07-04 03:36:00,
2013-07-03 23:51:00,69.4,50.5,29.50,NW,306,0.0,0.0,51,0.00,,,0.00,VWS V14.01,2013-07-04 03:51:00,